DAH030 LEBL-EDDM

Flight info

Callsign DAH030
Flight time 2h 3m
Altitude 38000
Route DALIN DCT PIVUS DCT DIBER DCT ADITA DCT MAXIR DCT LUSOL DCT BODRU DCT OKTET DCT IRMAR DCT KINES DCT VANAS DCT MOBLO DCT LAMUR DCT KORED DCT NUNRI T103 BETOS
Aircraft A320/M-SDE3FGHIRWY/LB1

Departure

Time 2026-05-05 14:55
Airport Josep Tarradellas Barcelona-El Prat Airport (LEBL)

Arrival

Time 2026-05-05 16:58
Airport Munich Airport (EDDM)
Time Latitude Longitude Altitude Speed Heading
2026-05-05 14:38 41.28667 2.07587 13 ft 0 kts
2026-05-05 14:48 41.28647 2.07584 13 ft 3 kts
2026-05-05 14:48 41.28627 2.07582 14 ft 3 kts 353°
2026-05-05 14:48 41.28613 2.07586 14 ft 3 kts 324°
2026-05-05 14:48 41.28600 2.07606 18 ft 3 kts 282°
2026-05-05 14:49 41.28598 2.07615 17 ft 0 kts 268°
2026-05-05 14:51 41.28592 2.07577 15 ft 9 kts 249°
2026-05-05 14:51 41.28553 2.07470 12 ft 10 kts 219°
2026-05-05 14:51 41.28499 2.07414 13 ft 10 kts 225°
2026-05-05 14:51 41.28448 2.07421 15 ft 8 kts 169°
2026-05-05 14:52 41.28422 2.07409 16 ft 0 kts 242°
2026-05-05 14:52 41.28421 2.07406 17 ft 2 kts 240°
2026-05-05 14:52 41.28396 2.07368 18 ft 9 kts 223°
2026-05-05 14:52 41.28319 2.07347 20 ft 11 kts 163°
2026-05-05 14:53 41.28264 2.07378 18 ft 2 kts 154°
2026-05-05 14:53 41.28240 2.07394 18 ft 8 kts 153°
2026-05-05 14:53 41.28232 2.07399 18 ft 0 kts 152°
2026-05-05 14:53 41.28230 2.07401 18 ft 3 kts 152°
2026-05-05 14:54 41.28227 2.07425 18 ft 6 kts 70°
2026-05-05 14:54 41.28268 2.07528 19 ft 31 kts 63°
2026-05-05 14:54 41.28461 2.08137 18 ft 107 kts 68°
2026-05-05 14:54 41.28863 2.09272 21 ft 162 kts 65°
2026-05-05 14:55 41.29310 2.10588 846 ft 149 kts 75°
2026-05-05 14:55 41.29353 2.11946 1494 ft 156 kts 108°
2026-05-05 14:55 41.29103 2.13481 2018 ft 179 kts 103°
2026-05-05 14:55 41.28917 2.15201 2442 ft 202 kts 99°
2026-05-05 14:56 41.28734 2.17165 2949 ft 218 kts 99°
2026-05-05 14:56 41.28558 2.19190 3613 ft 223 kts 98°
2026-05-05 14:56 41.28381 2.21250 4315 ft 226 kts 98°
2026-05-05 14:56 41.28201 2.23343 5022 ft 229 kts 98°
2026-05-05 14:57 41.28018 2.25451 5698 ft 231 kts 98°
2026-05-05 14:57 41.27830 2.27591 6357 ft 234 kts 99°
2026-05-05 14:57 41.27640 2.29756 6974 ft 237 kts 99°
2026-05-05 14:57 41.27443 2.31951 7512 ft 243 kts 100°
2026-05-05 14:58 41.27208 2.34261 7861 ft 263 kts 101°
2026-05-05 14:58 41.26947 2.36710 8551 ft 271 kts 102°
2026-05-05 14:58 41.26672 2.39263 9143 ft 289 kts 102°
2026-05-05 14:58 41.26382 2.41958 9920 ft 299 kts 102°
2026-05-05 14:59 41.26076 2.44794 10379 ft 321 kts 102°
2026-05-05 14:59 41.25743 2.47835 10736 ft 344 kts 102°
2026-05-05 14:59 41.25396 2.51048 11387 ft 355 kts 102°
2026-05-05 14:59 41.25248 2.54368 12148 ft 367 kts 89°
2026-05-05 15:00 41.25813 2.57717 12911 ft 379 kts 70°
2026-05-05 15:00 41.26619 2.59846 13413 ft 385 kts 58°
2026-05-05 15:00 41.28678 2.63735 14294 ft 393 kts 53°
2026-05-05 15:00 41.30523 2.66443 14931 ft 398 kts 41°
2026-05-05 15:01 41.32738 2.68683 15585 ft 402 kts 30°
2026-05-05 15:01 41.35236 2.70344 16242 ft 403 kts 18°
2026-05-05 15:01 41.37879 2.71621 16908 ft 407 kts 16°
2026-05-05 15:01 41.40595 2.72928 17574 ft 411 kts 16°
2026-05-05 15:02 41.43293 2.74231 18226 ft 415 kts 16°
2026-05-05 15:02 41.45984 2.75559 18783 ft 421 kts 19°
2026-05-05 15:02 41.48627 2.77420 19316 ft 429 kts 31°
2026-05-05 15:02 41.50974 2.79919 19841 ft 436 kts 43°
2026-05-05 15:03 41.52974 2.82998 20357 ft 441 kts 55°
2026-05-05 15:03 41.54553 2.86517 20868 ft 445 kts 63°
2026-05-05 15:03 41.56032 2.90171 21370 ft 449 kts 63°
2026-05-05 15:03 41.57530 2.93846 21870 ft 453 kts 62°
2026-05-05 15:04 41.59049 2.97561 22347 ft 458 kts 63°
2026-05-05 15:04 41.60576 3.01314 22834 ft 462 kts 63°
2026-05-05 15:04 41.62116 3.05110 23314 ft 466 kts 63°
2026-05-05 15:04 41.63665 3.08935 23725 ft 470 kts 63°
2026-05-05 15:05 41.66803 3.16698 24471 ft 479 kts 63°
2026-05-05 15:05 41.68374 3.20649 24855 ft 482 kts 64°
2026-05-05 15:05 41.69855 3.24694 25217 ft 486 kts 67°
2026-05-05 15:06 41.71251 3.28827 25573 ft 490 kts 68°
2026-05-05 15:06 41.72596 3.33020 25933 ft 493 kts 69°
2026-05-05 15:06 41.73940 3.37276 26282 ft 497 kts 69°
2026-05-05 15:06 41.75303 3.41549 26624 ft 501 kts 69°
2026-05-05 15:07 41.76701 3.45850 26982 ft 505 kts 68°
2026-05-05 15:07 41.78126 3.50160 27322 ft 509 kts 68°
2026-05-05 15:07 41.79577 3.54506 27670 ft 512 kts 68°
2026-05-05 15:07 41.81040 3.58877 28017 ft 516 kts 68°
2026-05-05 15:08 41.82511 3.63287 28354 ft 519 kts 68°
2026-05-05 15:08 41.83984 3.67723 28688 ft 523 kts 69°
2026-05-05 15:08 41.85458 3.72193 29000 ft 526 kts 69°
2026-05-05 15:08 41.86940 3.76700 29329 ft 529 kts 69°
2026-05-05 15:09 41.88426 3.81228 29632 ft 532 kts 69°
2026-05-05 15:09 41.89919 3.85787 29927 ft 536 kts 69°
2026-05-05 15:09 41.91419 3.90380 30192 ft 538 kts 69°
2026-05-05 15:09 41.92925 3.94994 30480 ft 540 kts 69°
2026-05-05 15:10 41.94436 3.99624 30763 ft 542 kts 69°
2026-05-05 15:10 41.95949 4.04271 31047 ft 544 kts 69°
2026-05-05 15:10 41.97485 4.08993 31346 ft 545 kts 69°
2026-05-05 15:10 41.99001 4.13657 31747 ft 543 kts 69°
2026-05-05 15:11 42.00509 4.18303 32159 ft 542 kts 70°
2026-05-05 15:11 42.01994 4.22886 32541 ft 541 kts 70°
2026-05-05 15:11 42.03490 4.27521 32918 ft 539 kts 70°
2026-05-05 15:11 42.04978 4.32148 33309 ft 538 kts 70°
2026-05-05 15:12 42.06554 4.36715 33699 ft 539 kts 64°
2026-05-05 15:12 42.08545 4.41001 34056 ft 541 kts 54°
2026-05-05 15:12 42.10946 4.44892 34394 ft 540 kts 45°
2026-05-05 15:12 42.13677 4.48344 34749 ft 537 kts 40°
2026-05-05 15:13 42.16470 4.51686 35121 ft 535 kts 40°
2026-05-05 15:13 42.19246 4.55020 35479 ft 533 kts 40°
2026-05-05 15:13 42.22009 4.58353 35836 ft 531 kts 40°
2026-05-05 15:13 42.24755 4.61673 36193 ft 529 kts 40°
2026-05-05 15:14 42.27491 4.64986 36524 ft 527 kts 40°
2026-05-05 15:14 42.30207 4.68281 36875 ft 524 kts 40°
2026-05-05 15:14 42.32911 4.71565 37210 ft 522 kts 39°
2026-05-05 15:14 42.35607 4.74845 37536 ft 520 kts 39°
2026-05-05 15:15 42.38329 4.78160 37858 ft 518 kts 39°
2026-05-05 15:15 42.43635 4.84610 37922 ft 515 kts 39°
2026-05-05 15:16 42.48994 4.91128 37921 ft 514 kts 39°
2026-05-05 15:16 42.54297 4.97619 37926 ft 513 kts 39°
2026-05-05 15:17 42.59593 5.04106 37925 ft 513 kts 40°
2026-05-05 15:17 42.64876 5.10602 37928 ft 513 kts 40°
2026-05-05 15:18 42.70163 5.17119 37932 ft 512 kts 40°
2026-05-05 15:18 42.75438 5.23632 37940 ft 512 kts 40°
2026-05-05 15:19 42.80713 5.30155 37944 ft 512 kts 40°
2026-05-05 15:19 42.85978 5.36670 37944 ft 512 kts 40°
2026-05-05 15:20 42.91238 5.43213 37945 ft 511 kts 40°
2026-05-05 15:20 42.96488 5.49759 37947 ft 511 kts 40°
2026-05-05 15:21 43.01730 5.56312 37947 ft 511 kts 40°
2026-05-05 15:21 43.06114 5.61811 37948 ft 510 kts 40°
2026-05-05 15:22 43.11339 5.68374 37950 ft 510 kts 40°
2026-05-05 15:22 43.16571 5.74953 37955 ft 509 kts 40°
2026-05-05 15:23 43.21784 5.81515 37957 ft 509 kts 40°
2026-05-05 15:23 43.26984 5.88097 37955 ft 508 kts 40°
2026-05-05 15:24 43.32176 5.94681 37949 ft 507 kts 40°
2026-05-05 15:24 43.37683 6.00603 37934 ft 501 kts 26°
2026-05-05 15:25 43.44066 6.04097 37932 ft 488 kts
2026-05-05 15:25 43.50723 6.05181 37926 ft 480 kts 358°
2026-05-05 15:26 43.57386 6.05847 37921 ft 480 kts 358°
2026-05-05 15:26 43.64056 6.06525 37923 ft 481 kts 358°
2026-05-05 15:27 43.70724 6.07203 37923 ft 481 kts 358°
2026-05-05 15:27 43.77372 6.08536 37930 ft 490 kts 12°
2026-05-05 15:28 43.83677 6.12277 37929 ft 496 kts 22°
2026-05-05 15:28 43.89875 6.16513 37943 ft 497 kts 22°
2026-05-05 15:29 43.96117 6.20774 37942 ft 497 kts 22°
2026-05-05 15:29 44.02325 6.25021 37950 ft 497 kts 22°
2026-05-05 15:30 44.08520 6.29274 37947 ft 496 kts 22°
2026-05-05 15:30 44.14716 6.33537 37937 ft 497 kts 23°
2026-05-05 15:31 44.20917 6.37811 37948 ft 498 kts 23°
2026-05-05 15:31 44.27125 6.42095 37929 ft 498 kts 23°
2026-05-05 15:32 44.33337 6.46389 37934 ft 498 kts 23°
2026-05-05 15:32 44.39449 6.50632 37934 ft 498 kts 23°
2026-05-05 15:33 44.45654 6.54954 37925 ft 497 kts 23°
2026-05-05 15:33 44.51851 6.59285 37937 ft 499 kts 23°
2026-05-05 15:34 44.58070 6.63630 37932 ft 498 kts 23°
2026-05-05 15:34 44.64281 6.67978 37948 ft 499 kts 24°
2026-05-05 15:35 44.70496 6.72347 37949 ft 499 kts 24°
2026-05-05 15:35 44.76744 6.76552 37950 ft 495 kts 17°
2026-05-05 15:36 44.83394 6.78594 37941 ft 484 kts 358°
2026-05-05 15:36 44.90115 6.78367 37951 ft 480 kts 352°
2026-05-05 15:37 44.96784 6.77924 37953 ft 480 kts 352°
2026-05-05 15:37 45.03470 6.77493 37944 ft 481 kts 353°
2026-05-05 15:38 45.10133 6.77060 37946 ft 481 kts 352°
2026-05-05 15:38 45.16832 6.76620 37943 ft 481 kts 352°
2026-05-05 15:39 45.23511 6.76170 37941 ft 481 kts 352°
2026-05-05 15:39 45.30198 6.75716 37941 ft 481 kts 353°
2026-05-05 15:40 45.36872 6.75271 37938 ft 480 kts 353°
2026-05-05 15:40 45.43543 6.74830 37939 ft 480 kts 353°
2026-05-05 15:41 45.50212 6.74383 37942 ft 479 kts 353°
2026-05-05 15:41 45.56872 6.73922 37935 ft 479 kts 353°
2026-05-05 15:42 45.63534 6.73461 37934 ft 479 kts 353°
2026-05-05 15:42 45.70195 6.73012 37918 ft 478 kts 353°
2026-05-05 15:43 45.76850 6.72609 37919 ft 481 kts 357°
2026-05-05 15:43 45.83490 6.74126 37916 ft 489 kts 16°
2026-05-05 15:44 45.89757 6.77991 37908 ft 491 kts 22°
2026-05-05 15:44 45.96009 6.82083 37903 ft 491 kts 22°
2026-05-05 15:45 46.02230 6.86147 37908 ft 491 kts 22°
2026-05-05 15:45 46.08446 6.90224 37902 ft 491 kts 23°
2026-05-05 15:46 46.14666 6.94326 37908 ft 492 kts 23°
2026-05-05 15:46 46.20877 6.98442 37912 ft 491 kts 22°
2026-05-05 15:47 46.27084 7.02542 37908 ft 491 kts 23°
2026-05-05 15:47 46.33292 7.06657 37911 ft 491 kts 23°
2026-05-05 15:48 46.39496 7.10791 37908 ft 491 kts 23°
2026-05-05 15:48 46.45694 7.14924 37906 ft 491 kts 23°
2026-05-05 15:49 46.51901 7.19074 37904 ft 491 kts 23°
2026-05-05 15:49 46.58100 7.23228 37904 ft 490 kts 23°
2026-05-05 15:50 46.64299 7.27386 37902 ft 490 kts 23°
2026-05-05 15:50 46.70482 7.31557 37905 ft 489 kts 23°
2026-05-05 15:51 46.76651 7.35730 37907 ft 489 kts 23°
2026-05-05 15:51 46.82539 7.40656 37911 ft 489 kts 39°
2026-05-05 15:52 46.86792 7.47244 37910 ft 487 kts 57°
2026-05-05 15:52 46.90028 7.55909 37909 ft 485 kts 65°
2026-05-05 15:53 46.93035 7.64740 37905 ft 485 kts 65°
2026-05-05 15:53 46.96027 7.73558 37896 ft 485 kts 65°
2026-05-05 15:54 46.98534 7.80971 37889 ft 485 kts 65°
2026-05-05 15:54 47.01514 7.89787 37862 ft 478 kts 65°
2026-05-05 15:54 47.02971 7.94097 37860 ft 463 kts 65°
2026-05-05 15:55 47.04376 7.98265 37874 ft 448 kts 66°
2026-05-05 15:55 47.05727 8.02287 37875 ft 433 kts 66°
2026-05-05 15:55 47.07018 8.06149 37877 ft 419 kts 66°
2026-05-05 15:55 47.08281 8.09922 37886 ft 407 kts 66°
2026-05-05 15:56 47.09522 8.13629 37887 ft 402 kts 66°
2026-05-05 15:56 47.11975 8.20986 37897 ft 400 kts 66°
2026-05-05 15:57 47.14414 8.28334 37896 ft 400 kts 66°
2026-05-05 15:57 47.16848 8.35681 37892 ft 400 kts 66°
2026-05-05 15:58 47.19280 8.43040 37886 ft 400 kts 66°
2026-05-05 15:58 47.21698 8.50401 37877 ft 400 kts 66°
2026-05-05 15:59 47.24121 8.57766 37879 ft 400 kts 66°
2026-05-05 15:59 47.26536 8.65128 37885 ft 400 kts 66°
2026-05-05 16:00 47.28968 8.72552 37887 ft 400 kts 66°
2026-05-05 16:00 47.31368 8.79929 37887 ft 400 kts 67°
2026-05-05 16:01 47.33760 8.87315 37881 ft 399 kts 67°
2026-05-05 16:01 47.36159 8.94717 37876 ft 399 kts 66°
2026-05-05 16:02 47.37821 8.99842 37871 ft 399 kts 66°
2026-05-05 16:02 47.40156 9.07068 37854 ft 398 kts 67°
2026-05-05 16:02 47.41344 9.10758 37496 ft 397 kts 67°
2026-05-05 16:03 47.42524 9.14418 37111 ft 393 kts 67°
2026-05-05 16:03 47.43694 9.18058 36727 ft 391 kts 67°
2026-05-05 16:03 47.44852 9.21671 36355 ft 388 kts 67°
2026-05-05 16:03 47.46001 9.25260 35995 ft 385 kts 67°
2026-05-05 16:04 47.47143 9.28829 35620 ft 383 kts 68°
2026-05-05 16:04 47.48271 9.32366 35255 ft 380 kts 68°
2026-05-05 16:04 47.49396 9.35902 34918 ft 378 kts 68°
2026-05-05 16:04 47.50508 9.39402 34559 ft 376 kts 68°
2026-05-05 16:05 47.51616 9.42895 34217 ft 374 kts 68°
2026-05-05 16:05 47.52713 9.46362 33875 ft 371 kts 68°
2026-05-05 16:05 47.53806 9.49816 33489 ft 369 kts 68°
2026-05-05 16:05 47.54886 9.53235 33168 ft 365 kts 68°
2026-05-05 16:06 47.55952 9.56611 32829 ft 361 kts 68°
2026-05-05 16:06 47.57015 9.59981 32507 ft 358 kts 69°
2026-05-05 16:06 47.57883 9.63385 32176 ft 349 kts 79°
2026-05-05 16:06 47.58357 9.66859 31853 ft 341 kts 89°
2026-05-05 16:07 47.58466 9.70322 31522 ft 333 kts 98°
2026-05-05 16:07 47.58327 9.73729 31216 ft 329 kts 99°
2026-05-05 16:07 47.58188 9.77133 30888 ft 326 kts 99°
2026-05-05 16:07 47.58057 9.80472 30563 ft 323 kts 98°
2026-05-05 16:08 47.57930 9.83773 30272 ft 319 kts 98°
2026-05-05 16:08 47.57803 9.87042 29972 ft 316 kts 98°
2026-05-05 16:08 47.57675 9.90277 29616 ft 314 kts 98°
2026-05-05 16:08 47.57543 9.93493 29264 ft 311 kts 98°
2026-05-05 16:09 47.57411 9.96672 28901 ft 309 kts 98°
2026-05-05 16:09 47.57278 9.99833 28540 ft 307 kts 98°
2026-05-05 16:09 47.57145 10.02973 28198 ft 304 kts 98°
2026-05-05 16:09 47.57014 10.06083 27866 ft 302 kts 98°
2026-05-05 16:10 47.56884 10.09187 27531 ft 301 kts 98°
2026-05-05 16:10 47.56752 10.12261 27225 ft 298 kts 98°
2026-05-05 16:10 47.56618 10.15321 26899 ft 296 kts 98°
2026-05-05 16:10 47.56493 10.18138 26583 ft 294 kts 99°
2026-05-05 16:11 47.56357 10.21159 26267 ft 292 kts 98°
2026-05-05 16:11 47.55959 10.30089 25345 ft 287 kts 98°
2026-05-05 16:12 47.55831 10.33028 25032 ft 286 kts 98°
2026-05-05 16:12 47.55571 10.38867 24439 ft 282 kts 98°
2026-05-05 16:13 47.55182 10.47494 23600 ft 279 kts 96°
2026-05-05 16:13 47.55223 10.50372 23285 ft 279 kts 89°
2026-05-05 16:13 47.55456 10.53224 22958 ft 280 kts 84°
2026-05-05 16:14 47.56480 10.58768 22232 ft 280 kts 71°
2026-05-05 16:14 47.58204 10.63901 21650 ft 278 kts 61°
2026-05-05 16:15 47.60172 10.68773 21089 ft 274 kts 61°
2026-05-05 16:15 47.62107 10.73595 20545 ft 270 kts 61°
2026-05-05 16:16 47.64013 10.78354 20009 ft 267 kts 61°
2026-05-05 16:16 47.65901 10.83063 19498 ft 264 kts 61°
2026-05-05 16:17 47.67896 10.87629 18990 ft 263 kts 53°
2026-05-05 16:17 47.69078 10.89689 18733 ft 262 kts 47°
2026-05-05 16:18 47.71793 10.93274 18252 ft 260 kts 39°
2026-05-05 16:18 47.73206 10.94946 17982 ft 259 kts 39°
2026-05-05 16:18 47.76012 10.98269 17435 ft 257 kts 39°
2026-05-05 16:19 47.77424 10.99942 17166 ft 255 kts 39°
2026-05-05 16:19 47.78810 11.01587 16893 ft 255 kts 39°
2026-05-05 16:19 47.81564 11.04869 16376 ft 252 kts 39°
2026-05-05 16:20 47.84297 11.08131 15839 ft 251 kts 39°
2026-05-05 16:20 47.87005 11.11364 15336 ft 249 kts 39°
2026-05-05 16:21 47.89707 11.14570 14839 ft 247 kts 38°
2026-05-05 16:22 47.93717 11.19336 14119 ft 244 kts 38°
2026-05-05 16:22 47.96370 11.22496 13636 ft 243 kts 38°
2026-05-05 16:23 47.98999 11.25633 13101 ft 241 kts 39°
2026-05-05 16:23 48.00301 11.27192 12826 ft 240 kts 39°
2026-05-05 16:23 48.02892 11.30299 12302 ft 237 kts 39°
2026-05-05 16:24 48.04177 11.31840 12035 ft 236 kts 39°
2026-05-05 16:24 48.05385 11.33497 11757 ft 235 kts 48°
2026-05-05 16:24 48.07269 11.37427 11219 ft 231 kts 65°
2026-05-05 16:25 48.07925 11.39609 10958 ft 229 kts 72°
2026-05-05 16:25 48.09000 11.44067 10420 ft 227 kts 72°
2026-05-05 16:25 48.09538 11.46283 10170 ft 226 kts 72°
2026-05-05 16:26 48.10611 11.50689 9645 ft 224 kts 72°
2026-05-05 16:26 48.11666 11.55044 9105 ft 221 kts 72°
2026-05-05 16:27 48.12011 11.56477 8938 ft 220 kts 72°
2026-05-05 16:27 48.12526 11.58619 8689 ft 218 kts 72°
2026-05-05 16:27 48.13039 11.60749 8420 ft 217 kts 72°
2026-05-05 16:27 48.13549 11.62870 8177 ft 215 kts 72°
2026-05-05 16:28 48.14052 11.64972 7919 ft 214 kts 72°
2026-05-05 16:28 48.14557 11.67073 7654 ft 214 kts 72°
2026-05-05 16:28 48.15057 11.69158 7412 ft 212 kts 72°
2026-05-05 16:28 48.15558 11.71262 7160 ft 211 kts 72°
2026-05-05 16:29 48.16050 11.73325 6928 ft 210 kts 72°
2026-05-05 16:29 48.16537 11.75358 6698 ft 209 kts 71°
2026-05-05 16:29 48.17027 11.77402 6466 ft 208 kts 71°
2026-05-05 16:29 48.17527 11.79428 6238 ft 206 kts 68°
2026-05-05 16:30 48.18198 11.81319 6001 ft 205 kts 57°
2026-05-05 16:30 48.19061 11.83005 5783 ft 203 kts 47°
2026-05-05 16:30 48.20074 11.84468 5553 ft 202 kts 42°
2026-05-05 16:30 48.21100 11.85891 5321 ft 200 kts 42°
2026-05-05 16:31 48.22114 11.87308 5093 ft 198 kts 42°
2026-05-05 16:31 48.23119 11.88717 4889 ft 196 kts 42°
2026-05-05 16:31 48.24112 11.90111 4809 ft 195 kts 42°
2026-05-05 16:31 48.25028 11.91396 4810 ft 196 kts 42°
2026-05-05 16:32 48.26028 11.92797 4809 ft 196 kts 42°
2026-05-05 16:32 48.27026 11.94197 4810 ft 196 kts 42°
2026-05-05 16:32 48.28020 11.95591 4808 ft 196 kts 42°
2026-05-05 16:32 48.29008 11.96977 4812 ft 189 kts 42°
2026-05-05 16:33 48.29941 11.98289 4815 ft 182 kts 42°
2026-05-05 16:33 48.30858 11.99581 4811 ft 180 kts 43°
2026-05-05 16:33 48.31769 12.00865 4807 ft 180 kts 42°
2026-05-05 16:33 48.32683 12.02152 4799 ft 180 kts 42°
2026-05-05 16:34 48.33596 12.03439 4804 ft 180 kts 42°
2026-05-05 16:34 48.34507 12.04722 4802 ft 180 kts 42°
2026-05-05 16:34 48.35446 12.05978 4796 ft 180 kts 32°
2026-05-05 16:34 48.36624 12.06427 4798 ft 178 kts 352°
2026-05-05 16:35 48.37724 12.05662 4798 ft 177 kts 313°
2026-05-05 16:35 48.38265 12.04044 4803 ft 176 kts 276°
2026-05-05 16:35 48.38028 12.02263 4804 ft 177 kts 238°
2026-05-05 16:35 48.37115 12.01049 4811 ft 178 kts 208°
2026-05-05 16:36 48.36142 11.99924 4790 ft 178 kts 239°
2026-05-05 16:36 48.35824 11.98163 4824 ft 177 kts 265°
2026-05-05 16:36 48.35691 11.96358 4820 ft 165 kts 263°
2026-05-05 16:36 48.35566 11.94757 4800 ft 144 kts 263°
2026-05-05 16:37 48.35452 11.93302 4799 ft 138 kts 263°
2026-05-05 16:37 48.35342 11.91878 4805 ft 137 kts 264°
2026-05-05 16:37 48.35237 11.90451 4806 ft 137 kts 264°
2026-05-05 16:37 48.35131 11.89024 4803 ft 137 kts 264°
2026-05-05 16:38 48.35035 11.87750 4808 ft 137 kts 263°
2026-05-05 16:38 48.34926 11.86325 4784 ft 139 kts 264°
2026-05-05 16:38 48.34815 11.84731 4189 ft 162 kts 264°
2026-05-05 16:38 48.34653 11.83059 3964 ft 156 kts 260°
2026-05-05 16:39 48.34420 11.81501 3719 ft 153 kts 256°
2026-05-05 16:39 48.34097 11.79935 3282 ft 163 kts 251°
2026-05-05 16:39 48.33722 11.78337 3121 ft 150 kts 265°
2026-05-05 16:39 48.33919 11.76910 3123 ft 136 kts 290°
2026-05-05 16:40 48.34099 11.75542 3118 ft 134 kts 265°
2026-05-05 16:40 48.33907 11.74180 3116 ft 134 kts 256°
2026-05-05 16:40 48.33568 11.73018 3116 ft 135 kts 239°
2026-05-05 16:40 48.32960 11.71941 3126 ft 139 kts 221°
2026-05-05 16:41 48.31991 11.71078 3147 ft 184 kts 200°
2026-05-05 16:41 48.30693 11.70831 3115 ft 193 kts 174°
2026-05-05 16:41 48.29413 11.71449 3123 ft 195 kts 149°
2026-05-05 16:41 48.28253 11.72509 3169 ft 194 kts 148°
2026-05-05 16:42 48.27102 11.73571 3431 ft 196 kts 147°
2026-05-05 16:42 48.25955 11.74654 3757 ft 195 kts 149°
2026-05-05 16:42 48.24761 11.75647 4062 ft 197 kts 151°
2026-05-05 16:42 48.23579 11.76670 4325 ft 196 kts 148°
2026-05-05 16:43 48.22421 11.77746 4578 ft 196 kts 148°
2026-05-05 16:43 48.21249 11.78777 4895 ft 196 kts 149°
2026-05-05 16:43 48.20064 11.79824 4900 ft 196 kts 149°
2026-05-05 16:43 48.19047 11.81135 4886 ft 195 kts 120°
2026-05-05 16:44 48.18786 11.83086 4901 ft 195 kts 79°
2026-05-05 16:44 48.19185 11.85033 4946 ft 196 kts 69°
2026-05-05 16:44 48.19701 11.86930 4820 ft 198 kts 68°
2026-05-05 16:44 48.20193 11.88834 4754 ft 190 kts 70°
2026-05-05 16:45 48.20650 11.90709 4936 ft 194 kts 69°
2026-05-05 16:45 48.21124 11.92624 4915 ft 195 kts 70°
2026-05-05 16:45 48.21499 11.94195 4899 ft 194 kts 70°
2026-05-05 16:45 48.21952 11.96110 4894 ft 194 kts 70°
2026-05-05 16:46 48.22402 11.98019 4896 ft 194 kts 70°
2026-05-05 16:46 48.22817 11.99777 4892 ft 194 kts 70°
2026-05-05 16:46 48.23268 12.01688 4890 ft 194 kts 70°
2026-05-05 16:46 48.23720 12.03596 4889 ft 194 kts 70°
2026-05-05 16:47 48.24178 12.05531 4889 ft 194 kts 70°
2026-05-05 16:47 48.24630 12.07442 4891 ft 194 kts 70°
2026-05-05 16:47 48.25076 12.09324 4888 ft 194 kts 70°
2026-05-05 16:47 48.25530 12.11233 4888 ft 194 kts 71°
2026-05-05 16:48 48.25989 12.13165 4885 ft 194 kts 70°
2026-05-05 16:48 48.26441 12.15071 4883 ft 194 kts 70°
2026-05-05 16:48 48.26894 12.16975 4879 ft 194 kts 70°
2026-05-05 16:48 48.27348 12.18876 4881 ft 194 kts 71°
2026-05-05 16:49 48.27805 12.20789 4880 ft 194 kts 71°
2026-05-05 16:49 48.28261 12.22694 4871 ft 194 kts 69°
2026-05-05 16:49 48.29032 12.24325 4817 ft 195 kts 34°
2026-05-05 16:49 48.30316 12.24803 4629 ft 195 kts 349°
2026-05-05 16:50 48.31476 12.23821 4397 ft 195 kts 311°
2026-05-05 16:50 48.32376 12.22384 4484 ft 189 kts 320°
2026-05-05 16:50 48.33436 12.21157 4636 ft 195 kts 330°
2026-05-05 16:50 48.34678 12.20334 4662 ft 196 kts 345°
2026-05-05 16:51 48.36008 12.19918 4585 ft 197 kts 352°
2026-05-05 16:51 48.37384 12.19558 4320 ft 196 kts 348°
2026-05-05 16:51 48.38605 12.18824 4588 ft 196 kts 319°
2026-05-05 16:51 48.39216 12.17030 4304 ft 203 kts 270°
2026-05-05 16:52 48.38864 12.14929 3839 ft 211 kts 238°
2026-05-05 16:52 48.37913 12.13239 3461 ft 216 kts 226°
2026-05-05 16:52 48.36898 12.11702 3028 ft 224 kts 229°
2026-05-05 16:52 48.36128 12.09759 2946 ft 213 kts 246°
2026-05-05 16:53 48.35482 12.07805 2800 ft 203 kts 242°
2026-05-05 16:53 48.35058 12.05950 2796 ft 174 kts 260°
2026-05-05 16:53 48.35025 12.04295 2877 ft 148 kts 280°
2026-05-05 16:53 48.35234 12.02824 2849 ft 140 kts 284°
2026-05-05 16:54 48.35554 12.01506 2699 ft 130 kts 295°
2026-05-05 16:54 48.35856 12.00212 2554 ft 130 kts 290°
2026-05-05 16:54 48.36101 11.98927 2403 ft 127 kts 282°
2026-05-05 16:54 48.36291 11.97648 2382 ft 126 kts 281°
2026-05-05 16:55 48.36415 11.96355 2457 ft 126 kts 279°
2026-05-05 16:55 48.36386 11.95030 2596 ft 135 kts 241°
2026-05-05 16:55 48.35940 11.93833 2840 ft 131 kts 240°
2026-05-05 16:55 48.35534 11.92602 3027 ft 131 kts 246°
2026-05-05 16:56 48.35213 11.91306 3041 ft 132 kts 253°
2026-05-05 16:56 48.34988 11.89973 3030 ft 132 kts 259°
2026-05-05 16:56 48.34863 11.88604 2816 ft 132 kts 264°
2026-05-05 16:56 48.34793 11.87243 2609 ft 131 kts 268°
2026-05-05 16:57 48.34759 11.85889 2461 ft 130 kts 271°
2026-05-05 16:57 48.34751 11.84524 2218 ft 132 kts 265°
2026-05-05 16:57 48.34679 11.83147 1940 ft 132 kts 263°
2026-05-05 16:57 48.34574 11.81814 1726 ft 129 kts 258°
2026-05-05 16:58 48.34472 11.80479 1552 ft 128 kts 257°
2026-05-05 16:58 48.34373 11.79248 1481 ft 100 kts 264°
2026-05-05 16:58 48.34371 11.78670 1478 ft 26 kts 290°
2026-05-05 16:58 48.34389 11.78550 1485 ft 1 kts 280°
2026-05-05 16:59 48.34388 11.78556 1485 ft 1 kts 280°
2026-05-05 16:59 48.34399 11.78507 1478 ft 10 kts 292°
2026-05-05 16:59 48.34413 11.78458 1476 ft 9 kts 295°
2026-05-05 16:59 48.34469 11.78269 1477 ft 21 kts 298°
2026-05-05 17:00 48.34507 11.78129 1483 ft 22 kts 288°
2026-05-05 17:00 48.34568 11.77947 1476 ft 19 kts 314°
2026-05-05 17:00 48.34659 11.77901 1478 ft 0 kts 352°
2026-05-05 17:01 48.34663 11.77900 1480 ft 2 kts 352°
2026-05-05 17:01 48.34687 11.77895 1486 ft 5 kts 352°
2026-05-05 17:01 48.34732 11.77888 1485 ft 8 kts 357°
2026-05-05 17:01 48.34802 11.77886 1485 ft 12 kts 355°
2026-05-05 17:02 48.34901 11.77859 1481 ft 17 kts 352°
2026-05-05 17:02 48.35035 11.77845 1483 ft 22 kts 356°
2026-05-05 17:02 48.35198 11.77809 1471 ft 26 kts 355°
2026-05-05 17:02 48.35385 11.77775 1479 ft 23 kts 353°
2026-05-05 17:03 48.35419 11.77707 1471 ft 3 kts 267°
2026-05-05 17:03 48.35418 11.77680 1474 ft 0 kts 269°